contact:dominique.lefevre@mio.osupytheas.fr, maurice.libes@osupytheas.fr, didier.mallarino@osupytheas.fr
Project:EMSO http://www.emso-fr.org/EMSO-France
Depth: 2436.0 m
Title:EMSO Ligure Ouest : Data MII capteur CSTAR
DateTime,Latitude,Longitude,Instrument_Serial,Reference_Counts,Signal_Counts,Corrected_Signal_raw_counts,Calculated_Beam_c_inverse_meters,Internal_thermistor_counts
DateTime,Latitude,Longitude,Instrument_Serial,Reference_Counts,Signal_Counts,Corrected_Signal_raw_counts,Calculated_Beam_c_inverse_meters,Internal_thermistor_counts
2021-11-22T10:25:06,42.805,6.029,CST-1368DR,5100,6669,13989,0.440,553
2021-11-22T10:28:08,42.805,6.029,CST-1368DR,5100,6672,13994,0.439,551
2021-11-22T10:31:10,42.805,6.029,CST-1368DR,5101,6671,13990,0.440,551
2021-11-22T10:34:11,42.805,6.029,CST-1368DR,5099,6533,13705,0.522,551
2021-11-22T10:37:13,42.805,6.029,CST-1368DR,5100,6611,13868,0.475,551
2021-11-22T10:40:14,42.805,6.029,CST-1368DR,5097,6324,13273,0.650,551
2021-11-22T10:43:16,42.805,6.029,CST-1368DR,5088,5350,11248,01.312,551
2021-11-22T10:46:17,42.805,6.029,CST-1368DR,5080,4281,9013,02.199,551
2021-11-22T10:49:19,42.805,6.029,CST-1368DR,5081,4388,9238,02.100,551
2021-11-22T10:52:21,42.805,6.029,CST-1368DR,5091,5752,12085,01.025,551
2021-11-22T10:55:22,42.805,6.029,CST-1368DR,5089,5526,11614,01.184,551
2021-11-22T10:58:24,42.805,6.029,CST-1368DR,5089,5573,11714,01.150,551
2021-11-22T11:01:25,42.805,6.029,CST-1368DR,5090,5721,12022,01.046,551
2021-11-22T11:04:27,42.805,6.029,CST-1368DR,5093,6155,12927,0.756,551
2021-11-22T11:07:29,42.805,6.029,CST-1368DR,5090,5806,12202,0.987,551
2021-11-22T11:10:30,42.805,6.029,CST-1368DR,5086,5387,11330,01.283,551
2021-11-22T11:13:32,42.805,6.029,CST-1368DR,5087,5518,11603,01.188,551
2021-11-22T11:16:33,42.805,6.029,CST-1368DR,5088,5647,11871,01.097,551
2021-11-22T11:19:35,42.805,6.029,CST-1368DR,5093,6225,13074,0.711,551
2021-11-22T11:22:36,42.805,6.029,CST-1368DR,5091,6058,12729,0.818,551
2021-11-22T11:25:38,42.805,6.029,CST-1368DR,5089,5843,12282,0.961,551
2021-11-22T11:28:40,42.805,6.029,CST-1368DR,5089,5969,12547,0.875,551
2021-11-22T11:31:41,42.805,6.029,CST-1368DR,5087,5751,12092,01.023,551
2021-11-22T11:34:43,42.805,6.029,CST-1368DR,5087,5682,11947,01.071,551
2021-11-22T11:37:44,42.805,6.029,CST-1368DR,5087,5742,12074,01.029,551
2021-11-22T11:40:46,42.805,6.029,CST-1368DR,5088,5914,12432,0.912,551
2021-11-22T11:43:47,42.805,6.029,CST-1368DR,5084,5489,11549,01.207,551
2021-11-22T11:46:49,42.805,6.029,CST-1368DR,5085,5560,11695,01.157,551
2021-11-22T11:49:51,42.805,6.029,CST-1368DR,5084,5462,11491,01.227,551
2021-11-22T11:52:52,42.805,6.029,CST-1368DR,5084,5550,11676,01.163,551
2021-11-22T11:55:54,42.805,6.029,CST-1368DR,5084,5523,11620,01.182,551
2021-11-22T11:58:55,42.805,6.029,CST-1368DR,5085,5648,11881,01.093,551
2021-11-22T12:01:57,42.805,6.029,CST-1368DR,5084,5547,11669,01.165,550
2021-11-22T12:04:59,42.805,6.029,CST-1368DR,5082,5347,11254,01.310,551
2021-11-22T12:08:00,42.805,6.029,CST-1368DR,5079,5041,10615,01.544,551
2021-11-22T12:11:02,42.805,6.029,CST-1368DR,5078,4932,10387,01.631,551
2021-11-22T12:14:03,42.805,6.029,CST-1368DR,5076,4588,9667,01.918,551
2021-11-22T12:17:05,42.805,6.029,CST-1368DR,5080,5185,10917,01.432,551
2021-11-22T12:20:06,42.805,6.029,CST-1368DR,5082,5542,11665,01.167,551
2021-11-22T12:23:08,42.805,6.029,CST-1368DR,5087,6128,12885,0.769,551
2021-11-22T12:26:10,42.805,6.029,CST-1368DR,5089,6319,13282,0.648,551
2021-11-22T12:29:11,42.805,6.029,CST-1368DR,5090,6459,13573,0.561,551
2021-11-22T12:32:13,42.805,6.029,CST-1368DR,5089,6342,13329,0.633,551
2021-11-22T12:35:14,42.805,6.029,CST-1368DR,5088,6293,13230,0.663,551
2021-11-22T12:38:16,42.805,6.029,CST-1368DR,5088,6299,13242,0.660,551
2021-11-22T12:41:18,42.805,6.029,CST-1368DR,5090,6468,13592,0.555,551
2021-11-22T12:44:19,42.805,6.029,CST-1368DR,5089,6478,13616,0.548,551
2021-11-22T12:47:21,42.805,6.029,CST-1368DR,5091,6586,13838,0.484,551
2021-11-22T12:50:22,42.805,6.029,CST-1368DR,5090,6545,13754,0.508,551
2021-11-22T12:53:24,42.805,6.029,CST-1368DR,5090,6611,13893,0.468,551
2021-11-22T12:56:25,42.805,6.029,CST-1368DR,5091,6632,13934,0.456,551
2021-11-22T12:59:27,42.805,6.029,CST-1368DR,5091,6655,13983,0.442,551
2021-11-22T13:02:29,42.805,6.029,CST-1368DR,5090,6649,13973,0.445,551
2021-11-22T13:05:30,42.805,6.029,CST-1368DR,5090,6652,13979,0.443,551
2021-11-22T13:08:32,42.805,6.029,CST-1368DR,5090,6653,13982,0.442,551
2021-11-22T13:11:33,42.805,6.029,CST-1368DR,5090,6650,13976,0.444,551
2021-11-22T13:14:35,42.805,6.029,CST-1368DR,5090,6652,13980,0.443,551
2021-11-22T13:17:36,42.805,6.029,CST-1368DR,5090,6652,13979,0.443,551
2021-11-22T13:20:38,42.805,6.029,CST-1368DR,5090,6652,13979,0.443,551
2021-11-22T13:23:40,42.805,6.029,CST-1368DR,5089,6653,13985,0.441,551
2021-11-22T13:26:41,42.805,6.029,CST-1368DR,5089,6645,13967,0.446,551
2021-11-22T13:29:43,42.805,6.029,CST-1368DR,5089,6601,13875,0.473,551
2021-11-22T13:32:44,42.805,6.029,CST-1368DR,5089,6604,13880,0.471,551
2021-11-22T13:35:46,42.805,6.029,CST-1368DR,5089,6635,13947,0.452,551
2021-11-22T13:38:48,42.805,6.029,CST-1368DR,5089,6637,13951,0.451,551
2021-11-22T13:41:49,42.805,6.029,CST-1368DR,5089,6639,13954,0.450,551
2021-11-22T13:44:51,42.805,6.029,CST-1368DR,5089,6649,13976,0.444,551
2021-11-22T13:47:52,42.805,6.029,CST-1368DR,5089,6654,13986,0.441,551
2021-11-22T13:50:54,42.805,6.029,CST-1368DR,5088,6652,13985,0.441,551
2021-11-22T13:53:55,42.805,6.029,CST-1368DR,5088,6653,13987,0.441,551
2021-11-22T13:56:57,42.805,6.029,CST-1368DR,5088,6654,13989,0.440,551
2021-11-22T13:59:59,42.805,6.029,CST-1368DR,5088,6653,13986,0.441,551
2021-11-22T14:03:00,42.805,6.029,CST-1368DR,5088,6654,13989,0.440,551
2021-11-22T14:06:02,42.805,6.029,CST-1368DR,5088,6654,13988,0.440,551
2021-11-22T14:09:03,42.805,6.029,CST-1368DR,5088,6654,13988,0.440,551
2021-11-22T14:12:05,42.805,6.029,CST-1368DR,5088,6653,13987,0.441,551
2021-11-22T14:15:06,42.805,6.029,CST-1368DR,5088,6653,13986,0.441,551
2021-11-22T14:18:08,42.805,6.029,CST-1368DR,5088,6653,13987,0.441,551
2021-11-22T14:21:10,42.805,6.029,CST-1368DR,5087,6653,13988,0.440,551
2021-11-22T14:24:11,42.805,6.029,CST-1368DR,5087,6653,13990,0.440,551
2021-11-22T14:27:13,42.805,6.029,CST-1368DR,5087,6653,13988,0.440,551
2021-11-22T14:30:14,42.805,6.029,CST-1368DR,5087,6653,13988,0.440,551
2021-11-22T14:33:16,42.805,6.029,CST-1368DR,5087,6653,13989,0.440,551
2021-11-22T14:36:18,42.805,6.029,CST-1368DR,5087,6652,13988,0.440,551
2021-11-22T14:39:19,42.805,6.029,CST-1368DR,5087,6652,13987,0.441,551
2021-11-22T14:42:21,42.805,6.029,CST-1368DR,5087,6652,13987,0.441,551
2021-11-22T14:45:22,42.805,6.029,CST-1368DR,5087,6652,13987,0.441,551
2021-11-22T14:48:24,42.805,6.029,CST-1368DR,5087,6651,13986,0.441,551
2021-11-22T14:51:25,42.805,6.029,CST-1368DR,5087,6651,13985,0.441,551
2021-11-22T14:54:27,42.805,6.029,CST-1368DR,5086,6652,13990,0.440,551
2021-11-22T14:57:29,42.805,6.029,CST-1368DR,5086,6652,13989,0.440,551
2021-11-22T15:00:30,42.805,6.029,CST-1368DR,5086,6652,13990,0.440,551
2021-11-22T15:03:32,42.805,6.029,CST-1368DR,5086,6651,13987,0.441,551
2021-11-22T15:06:33,42.805,6.029,CST-1368DR,5086,6651,13987,0.441,551
2021-11-22T15:09:35,42.805,6.029,CST-1368DR,5086,6651,13988,0.440,551
2021-11-22T15:12:37,42.805,6.029,CST-1368DR,5086,6651,13987,0.441,551
2021-11-22T15:15:38,42.805,6.029,CST-1368DR,5086,6651,13987,0.441,551
2021-11-22T15:18:40,42.805,6.029,CST-1368DR,5086,6651,13987,0.441,551
2021-11-22T15:21:41,42.805,6.029,CST-1368DR,5086,6651,13988,0.440,551
2021-11-22T15:24:43,42.805,6.029,CST-1368DR,5086,6650,13985,0.441,551
2021-11-22T15:27:44,42.805,6.029,CST-1368DR,5086,6650,13985,0.441,551
2021-11-22T15:30:46,42.805,6.029,CST-1368DR,5086,6651,13987,0.441,551
2021-11-22T15:33:48,42.805,6.029,CST-1368DR,5085,6651,13989,0.440,551
2021-11-22T15:36:49,42.805,6.029,CST-1368DR,5085,6649,13987,0.441,551
2021-11-22T15:39:51,42.805,6.029,CST-1368DR,5085,6650,13989,0.440,551
2021-11-22T15:42:52,42.805,6.029,CST-1368DR,5085,6650,13988,0.440,551
2021-11-22T15:45:54,42.805,6.029,CST-1368DR,5085,6649,13987,0.441,551
2021-11-22T15:48:55,42.805,6.029,CST-1368DR,5085,6650,13989,0.440,551
2021-11-22T15:51:57,42.805,6.029,CST-1368DR,5085,6650,13988,0.440,551
2021-11-22T15:54:59,42.805,6.029,CST-1368DR,5085,6650,13988,0.440,551
2021-11-22T15:58:00,42.805,6.029,CST-1368DR,5085,6650,13988,0.440,551
2021-11-22T16:01:02,42.805,6.029,CST-1368DR,5085,6650,13989,0.440,551
2021-11-22T16:04:03,42.805,6.029,CST-1368DR,5085,6649,13986,0.441,551
2021-11-22T16:07:05,42.805,6.029,CST-1368DR,5085,6649,13987,0.441,551
2021-11-22T16:10:07,42.805,6.029,CST-1368DR,5085,6649,13985,0.441,551
2021-11-22T16:13:08,42.805,6.029,CST-1368DR,5085,6650,13988,0.440,551
2021-11-22T16:16:10,42.805,6.029,CST-1368DR,5084,6649,13989,0.440,551
2021-11-22T16:19:11,42.805,6.029,CST-1368DR,5084,6649,13989,0.440,551
2021-11-22T16:22:13,42.805,6.029,CST-1368DR,5084,6649,13989,0.440,551
2021-11-22T16:25:14,42.805,6.029,CST-1368DR,5084,6649,13989,0.440,551
2021-11-22T16:28:16,42.805,6.029,CST-1368DR,5082,6284,13226,0.664,551
2021-11-22T16:31:18,42.805,6.029,CST-1368DR,5084,6647,13985,0.441,551
2021-11-22T16:34:19,42.805,6.029,CST-1368DR,5084,6649,13988,0.440,551
2021-11-22T16:37:21,42.805,6.029,CST-1368DR,5084,6648,13986,0.441,551
2021-11-22T16:40:22,42.805,6.029,CST-1368DR,5084,6649,13988,0.440,551
2021-11-22T16:43:24,42.805,6.029,CST-1368DR,5084,6649,13988,0.440,551
2021-11-22T16:46:25,42.805,6.029,CST-1368DR,5084,6648,13986,0.441,551
2021-11-22T16:49:27,42.805,6.029,CST-1368DR,5084,6648,13986,0.441,551
2021-11-22T16:52:29,42.805,6.029,CST-1368DR,5084,6647,13985,0.441,551
2021-11-22T16:55:30,42.805,6.029,CST-1368DR,5084,6648,13986,0.441,551
2021-11-22T16:58:32,42.805,6.029,CST-1368DR,5084,6647,13985,0.441,551
2021-11-22T17:01:33,42.805,6.029,CST-1368DR,5083,6620,13930,0.457,551
2021-11-22T17:04:35,42.805,6.029,CST-1368DR,5084,6647,13985,0.441,551
2021-11-22T17:07:37,42.805,6.029,CST-1368DR,5084,6647,13985,0.441,551
2021-11-22T17:10:38,42.805,6.029,CST-1368DR,5084,6647,13984,0.442,551
2021-11-22T17:13:40,42.805,6.029,CST-1368DR,5083,6647,13987,0.441,551
2021-11-22T17:16:41,42.805,6.029,CST-1368DR,5083,6637,13966,0.447,551
2021-11-22T17:19:43,42.805,6.029,CST-1368DR,5083,6647,13986,0.441,551
2021-11-22T17:22:44,42.805,6.029,CST-1368DR,5083,6647,13986,0.441,551
2021-11-22T17:25:46,42.805,6.029,CST-1368DR,5083,6647,13988,0.440,551
2021-11-22T17:28:48,42.805,6.029,CST-1368DR,5083,6647,13988,0.440,551
2021-11-22T17:31:49,42.805,6.029,CST-1368DR,5083,6647,13987,0.441,551
2021-11-22T17:34:51,42.805,6.029,CST-1368DR,5083,6647,13987,0.441,551
2021-11-22T17:37:52,42.805,6.029,CST-1368DR,5083,6647,13987,0.441,551
2021-11-22T17:40:54,42.805,6.029,CST-1368DR,5083,6648,13990,0.440,551
2021-11-22T17:43:56,42.805,6.029,CST-1368DR,5083,6647,13988,0.440,551
2021-11-22T17:46:57,42.805,6.029,CST-1368DR,5083,6647,13987,0.441,551
2021-11-22T17:49:59,42.805,6.029,CST-1368DR,5083,6647,13988,0.440,551
2021-11-22T17:53:00,42.805,6.029,CST-1368DR,5083,6646,13986,0.441,551
2021-11-22T17:56:02,42.805,6.029,CST-1368DR,5083,6642,13977,0.444,551
2021-11-22T17:59:03,42.805,6.029,CST-1368DR,5083,6646,13986,0.441,551
2021-11-22T18:02:05,42.805,6.029,CST-1368DR,5083,6647,13987,0.441,551
2021-11-22T18:05:07,42.805,6.029,CST-1368DR,5082,6646,13987,0.441,551
2021-11-22T18:08:08,42.805,6.029,CST-1368DR,5082,6647,13990,0.440,551
2021-11-22T18:11:10,42.805,6.029,CST-1368DR,5082,6647,13990,0.440,551
2021-11-22T18:14:11,42.805,6.029,CST-1368DR,5082,6646,13988,0.440,551
2021-11-22T18:17:13,42.805,6.029,CST-1368DR,5082,6647,13990,0.440,551
2021-11-22T18:20:14,42.805,6.029,CST-1368DR,5082,6647,13989,0.440,551
2021-11-22T18:23:16,42.805,6.029,CST-1368DR,5082,6647,13990,0.440,551
2021-11-22T18:26:18,42.805,6.029,CST-1368DR,5082,6646,13988,0.440,551
2021-11-22T18:29:19,42.805,6.029,CST-1368DR,5082,6646,13988,0.440,551
2021-11-22T18:32:21,42.805,6.029,CST-1368DR,5082,6647,13990,0.440,551
2021-11-22T18:35:22,42.805,6.029,CST-1368DR,5082,6646,13987,0.441,551
2021-11-22T18:38:24,42.805,6.029,CST-1368DR,5082,6647,13989,0.440,551
2021-11-22T18:41:26,42.805,6.029,CST-1368DR,5082,6648,13991,0.440,551
2021-11-22T18:44:27,42.805,6.029,CST-1368DR,5082,6646,13988,0.440,551
2021-11-22T18:47:29,42.805,6.029,CST-1368DR,5082,6645,13986,0.441,551
2021-11-22T18:50:30,42.805,6.029,CST-1368DR,5082,6647,13989,0.440,551
2021-11-22T18:53:32,42.805,6.029,CST-1368DR,5082,6647,13990,0.440,551
2021-11-22T18:56:33,42.805,6.029,CST-1368DR,5082,6646,13988,0.440,551
2021-11-22T18:59:35,42.805,6.029,CST-1368DR,5082,6645,13986,0.441,551
2021-11-22T19:02:37,42.805,6.029,CST-1368DR,5082,6645,13985,0.441,551
2021-11-22T19:05:38,42.805,6.029,CST-1368DR,5082,6646,13988,0.440,551
2021-11-22T19:08:40,42.805,6.029,CST-1368DR,5081,6646,13991,0.440,551
2021-11-22T19:11:41,42.805,6.029,CST-1368DR,5081,6645,13989,0.440,551
2021-11-22T19:14:43,42.805,6.029,CST-1368DR,5081,6644,13985,0.441,551
2021-11-22T19:17:45,42.805,6.029,CST-1368DR,5081,6645,13987,0.441,551
2021-11-22T19:20:46,42.805,6.029,CST-1368DR,5081,6646,13990,0.440,551
2021-11-22T19:23:48,42.805,6.029,CST-1368DR,5081,6646,13990,0.440,551
2021-11-22T19:26:49,42.805,6.029,CST-1368DR,5081,6644,13986,0.441,551
2021-11-22T19:29:51,42.805,6.029,CST-1368DR,5081,6644,13986,0.441,551
2021-11-22T19:32:52,42.805,6.029,CST-1368DR,5081,6645,13987,0.441,551
2021-11-22T19:35:54,42.805,6.029,CST-1368DR,5081,6644,13987,0.441,551
2021-11-22T19:38:56,42.805,6.029,CST-1368DR,5081,6644,13987,0.441,551
2021-11-22T19:41:57,42.805,6.029,CST-1368DR,5081,6644,13986,0.441,551
2021-11-22T19:44:59,42.805,6.029,CST-1368DR,5081,6643,13985,0.441,551
2021-11-22T19:48:00,42.805,6.029,CST-1368DR,5081,6645,13988,0.440,551
2021-11-22T19:51:02,42.805,6.029,CST-1368DR,5081,6643,13984,0.442,551
2021-11-22T19:54:03,42.805,6.029,CST-1368DR,5081,6644,13986,0.441,551
2021-11-22T19:57:05,42.805,6.029,CST-1368DR,5081,6645,13987,0.441,551
2021-11-22T20:00:07,42.805,6.029,CST-1368DR,5081,6645,13987,0.441,551
2021-11-22T20:03:08,42.805,6.029,CST-1368DR,5081,6644,13987,0.441,551
2021-11-22T20:06:10,42.805,6.029,CST-1368DR,5081,6646,13989,0.440,551
2021-11-22T20:09:11,42.805,6.029,CST-1368DR,5081,6644,13986,0.441,551
2021-11-22T20:12:13,42.805,6.029,CST-1368DR,5081,6646,13989,0.440,551
2021-11-22T20:15:15,42.805,6.029,CST-1368DR,5081,6645,13987,0.441,551
2021-11-22T20:18:16,42.805,6.029,CST-1368DR,5081,6642,13982,0.442,551
2021-11-22T20:21:18,42.805,6.029,CST-1368DR,5081,6644,13986,0.441,551
2021-11-22T20:24:19,42.805,6.029,CST-1368DR,5080,6644,13988,0.440,551
2021-11-22T20:27:21,42.805,6.029,CST-1368DR,5081,6644,13986,0.441,551
2021-11-22T20:30:22,42.805,6.029,CST-1368DR,5080,6644,13988,0.440,551
2021-11-22T20:33:24,42.805,6.029,CST-1368DR,5080,6644,13988,0.440,551
2021-11-22T20:36:26,42.805,6.029,CST-1368DR,5080,6645,13991,0.440,551
2021-11-22T20:39:27,42.805,6.029,CST-1368DR,5080,6644,13988,0.440,551
2021-11-22T20:42:29,42.805,6.029,CST-1368DR,5080,6644,13989,0.440,551
2021-11-22T20:45:30,42.805,6.029,CST-1368DR,5080,6644,13989,0.440,551
2021-11-22T20:48:32,42.805,6.029,CST-1368DR,5080,6642,13985,0.441,551
2021-11-22T20:51:34,42.805,6.029,CST-1368DR,5080,6620,13938,0.455,551
2021-11-22T20:54:35,42.805,6.029,CST-1368DR,5080,6640,13981,0.442,551
2021-11-22T20:57:37,42.805,6.029,CST-1368DR,5080,6643,13986,0.441,551
2021-11-22T21:00:38,42.805,6.029,CST-1368DR,5080,6644,13988,0.440,551
2021-11-22T21:03:40,42.805,6.029,CST-1368DR,5080,6644,13988,0.440,551
2021-11-22T21:06:41,42.805,6.029,CST-1368DR,5080,6642,13984,0.442,551
2021-11-22T21:09:43,42.805,6.029,CST-1368DR,5080,6643,13986,0.441,551
2021-11-22T21:12:45,42.805,6.029,CST-1368DR,5080,6643,13986,0.441,551
2021-11-22T21:15:46,42.805,6.029,CST-1368DR,5080,6644,13988,0.440,551
2021-11-22T21:18:48,42.805,6.029,CST-1368DR,5080,6644,13988,0.440,551
2021-11-22T21:21:49,42.805,6.029,CST-1368DR,5080,6642,13985,0.441,551
2021-11-22T21:24:51,42.805,6.029,CST-1368DR,5080,6642,13984,0.442,551
2021-11-22T21:27:52,42.805,6.029,CST-1368DR,5080,6644,13988,0.440,551
2021-11-22T21:30:54,42.805,6.029,CST-1368DR,5080,6644,13988,0.440,551
2021-11-22T21:33:56,42.805,6.029,CST-1368DR,5080,6644,13988,0.440,551
2021-11-22T21:36:57,42.805,6.029,CST-1368DR,5080,6643,13987,0.441,551
2021-11-22T21:39:59,42.805,6.029,CST-1368DR,5080,6643,13987,0.441,551
2021-11-22T21:43:00,42.805,6.029,CST-1368DR,5080,6641,13981,0.442,551
2021-11-22T21:46:02,42.805,6.029,CST-1368DR,5080,6643,13987,0.441,551
2021-11-22T21:49:04,42.805,6.029,CST-1368DR,5079,6640,13982,0.442,551
2021-11-22T21:52:05,42.805,6.029,CST-1368DR,5080,6643,13986,0.441,551
2021-11-22T21:55:07,42.805,6.029,CST-1368DR,5080,6643,13986,0.441,551
2021-11-22T21:58:08,42.805,6.029,CST-1368DR,5079,6643,13988,0.440,551
2021-11-22T22:01:10,42.805,6.029,CST-1368DR,5079,6641,13985,0.441,551
2021-11-22T22:04:11,42.805,6.029,CST-1368DR,5079,6640,13984,0.442,551
2021-11-22T22:07:13,42.805,6.029,CST-1368DR,5079,6643,13988,0.440,551
2021-11-22T22:10:15,42.805,6.029,CST-1368DR,5080,6642,13985,0.441,551
2021-11-22T22:13:16,42.805,6.029,CST-1368DR,5079,6643,13989,0.440,551
2021-11-22T22:16:18,42.805,6.029,CST-1368DR,5079,6642,13987,0.441,551
2021-11-22T22:19:19,42.805,6.029,CST-1368DR,5079,6642,13988,0.440,551
2021-11-22T22:22:21,42.805,6.029,CST-1368DR,5079,6640,13984,0.442,551
2021-11-22T22:25:23,42.805,6.029,CST-1368DR,5079,6642,13986,0.441,551
2021-11-22T22:28:24,42.805,6.029,CST-1368DR,5079,6641,13985,0.441,551
2021-11-22T22:31:26,42.805,6.029,CST-1368DR,5079,6642,13987,0.441,551
2021-11-22T22:34:27,42.805,6.029,CST-1368DR,5079,6642,13986,0.441,551
2021-11-22T22:37:29,42.805,6.029,CST-1368DR,5079,6641,13984,0.442,551
2021-11-22T22:40:30,42.805,6.029,CST-1368DR,5079,6635,13972,0.445,551
2021-11-22T22:43:32,42.805,6.029,CST-1368DR,5079,6641,13985,0.441,551
2021-11-22T22:46:34,42.805,6.029,CST-1368DR,5079,6639,13981,0.442,551
2021-11-22T22:49:35,42.805,6.029,CST-1368DR,5079,6642,13987,0.441,550
2021-11-22T22:52:37,42.805,6.029,CST-1368DR,5079,6640,13984,0.442,551
2021-11-22T22:55:38,42.805,6.029,CST-1368DR,5079,6642,13988,0.440,551
2021-11-22T22:58:40,42.805,6.029,CST-1368DR,5079,6642,13986,0.441,551
2021-11-22T23:01:41,42.805,6.029,CST-1368DR,5079,6640,13984,0.442,551
2021-11-22T23:04:43,42.805,6.029,CST-1368DR,5079,6641,13985,0.441,551
2021-11-22T23:07:45,42.805,6.029,CST-1368DR,5079,6641,13984,0.442,551
2021-11-22T23:10:46,42.805,6.029,CST-1368DR,5079,6640,13983,0.442,551
2021-11-22T23:13:48,42.805,6.029,CST-1368DR,5079,6640,13983,0.442,551
2021-11-22T23:16:49,42.805,6.029,CST-1368DR,5079,6641,13985,0.441,551
2021-11-22T23:19:51,42.805,6.029,CST-1368DR,5079,6641,13985,0.441,551
2021-11-22T23:22:53,42.805,6.029,CST-1368DR,5079,6640,13984,0.442,551
2021-11-22T23:25:54,42.805,6.029,CST-1368DR,5079,6641,13985,0.441,551
2021-11-22T23:28:56,42.805,6.029,CST-1368DR,5079,6642,13986,0.441,551
2021-11-22T23:31:57,42.805,6.029,CST-1368DR,5079,6642,13987,0.441,551
2021-11-22T23:34:59,42.805,6.029,CST-1368DR,5079,6641,13984,0.442,551
2021-11-22T23:38:00,42.805,6.029,CST-1368DR,5079,6641,13985,0.441,551
2021-11-22T23:41:02,42.805,6.029,CST-1368DR,5079,6642,13987,0.441,551
2021-11-22T23:44:04,42.805,6.029,CST-1368DR,5079,6642,13986,0.441,551
2021-11-22T23:47:05,42.805,6.029,CST-1368DR,5079,6641,13985,0.441,551
2021-11-22T23:50:07,42.805,6.029,CST-1368DR,5079,6640,13984,0.442,551
2021-11-22T23:53:08,42.805,6.029,CST-1368DR,5079,6640,13983,0.442,551
2021-11-22T23:56:10,42.805,6.029,CST-1368DR,5079,6640,13984,0.442,551
2021-11-22T23:59:11,42.805,6.029,CST-1368DR,5079,6641,13985,0.441,551
